Regional Weather Roundup
Issued by NWS

Home | Current Version | Previous Version | Graphics & Text | Print | Product List | Glossary On
Versions: 1 2 3 4 5 6 7 8 9 10 11 12 13 14 15 16 17 18 19 20 21 22 23 24 25 26 27 28 29 30 31 32 33 34 35 36 37 38 39 40 41 42 43 44 45 46 47 48 49 50
000
ASUS43 KTOP 291808
RWRKS

WEATHER ROUNDUP FOR KANSAS
NATIONAL WEATHER SERVICE GOODLAND KS
100 PM CDT MON AUG 29 2016

NOTE:  "FAIR" INDICATES FEW OR NO CLOUDS BELOW 12,000 FEET WITH NO
SIGNIFICANT WEATHER AND/OR OBSTRUCTIONS TO VISIBILITY.

KSZ001>006-013>018-027>032-041>047-291900-
NORTHWEST KANSAS

CITY           SKY/WX    TMP DP  RH WIND       PRES   REMARKS
GOODLAND       PTSUNNY   73  62  68 S15       30.26S
6HR MIN TEMP:  57; 6HR MAX TEMP:  73;

HAYS           CLOUDY    75  63  64 N3        30.22F
HILL CITY      CLOUDY    73  68  84 SW6       30.23F
6HR MIN TEMP:  66; 6HR MAX TEMP:  73; 6HR PCP:  0.01;

RUSSELL        MOSUNNY   82  68  62 SW7       30.19F
6HR MIN TEMP:  65; 6HR MAX TEMP:  83;

$$

KSZ061>065-074>080-084>089-291900-
SOUTHWEST KANSAS

CITY           SKY/WX    TMP DP  RH WIND       PRES   REMARKS
DODGE CITY     PTSUNNY   78  64  61 VRB3      30.23S
6HR MIN TEMP:  66; 6HR MAX TEMP:  78; 6HR PCP:  0.02;

ELKHART          N/A     70  61  73 SE8         N/A
GARDEN CITY    CLOUDY    71  65  81 E5        30.23F
6HR MIN TEMP:  65; 6HR MAX TEMP:  71; 6HR PCP:  0.06;

GREAT BEND     CLOUDY    82  64  54 E5        30.19F
LIBERAL        CLOUDY    70  64  83 E5        30.26S
PRATT          MOSUNNY   79  66  65 E7        30.20F
6HR MIN TEMP:  64; 6HR MAX TEMP:  80;

$$

KSZ066>073-081>083-090>101-291900-
SOUTHEAST KANSAS

CITY           SKY/WX    TMP DP  RH WIND       PRES   REMARKS
CHANUTE        MOSUNNY   85  72  65 SE7       30.18S
6HR MIN TEMP:  68; 6HR MAX TEMP:  88;

COFFEYVILLE    CLOUDY    75  72  90 NW3       30.16F
6HR MIN TEMP:  69; 6HR MAX TEMP:  81; 6HR PCP:  0.12;

HUTCHINSON     CLOUDY    85  72  65 SE6       30.18F
6HR MIN TEMP:  67; 6HR MAX TEMP:  85; 6HR PCP: TRACE;

MEDICINE LODGE   N/A     83  69  62 E8        30.17F
NEWTON         CLOUDY    85  68  56 SE8       30.19F
PARSONS        LGT RAIN  77  73  87 W3        30.19F
6HR MIN TEMP:  69; 6HR MAX TEMP:  84; 6HR PCP: TRACE;

WICHITA INTL   CLOUDY    84  72  67 E10       30.18F
6HR MIN TEMP:  71; 6HR MAX TEMP:  84;

WICHITA JABRA  CLOUDY    82  71  69 SE7       30.18F
6HR MIN TEMP:  68; 6HR MAX TEMP:  83;

WICHITA MCCONL CLOUDY    81  70  68 S9        30.18F
WINFIELD       PTSUNNY   84  71  65 E8        30.18F
6HR MIN TEMP:  71; 6HR MAX TEMP:  84; 6HR PCP: TRACE;

$$

KSZ007>012-019>026-033>040-048>060-102>105-291900-
NORTHEAST KANSAS

CITY           SKY/WX    TMP DP  RH WIND       PRES   REMARKS
CONCORDIA      MOSUNNY   85  71  63 SE7       30.19F
6HR MIN TEMP:  65; 6HR MAX TEMP:  85;

EMPORIA        MOSUNNY   86  71  60 SE7       30.19F
6HR MIN TEMP:  68; 6HR MAX TEMP:  86;

LAWRENCE       MOSUNNY   88  71  57 CALM      30.19S
6HR MIN TEMP:  68; 6HR MAX TEMP:  88;

MANHATTAN      MOSUNNY   87  73  62 SE6       30.17F
6HR MIN TEMP:  68; 6HR MAX TEMP:  88;

MARYSVILLE     SUNNY     86  72  62 SE5       30.19F
OLATHE IND     PTSUNNY   86  71  60 NE5       30.21F
6HR MIN TEMP:  71; 6HR MAX TEMP:  86;

OLATHE EXE     MOSUNNY   87  70  56 SE7       30.20F
6HR MIN TEMP:  69; 6HR MAX TEMP:  87;

SALINA         MOSUNNY   86  70  58 E3        30.18F
6HR MIN TEMP:  71; 6HR MAX TEMP:  88;

TOPEKA BILLARD SUNNY     88  69  53 VRB3      30.18F
6HR MIN TEMP:  70; 6HR MAX TEMP:  89;

TOPEKA FORBES  MOSUNNY   89  69  51 VRB5      30.19F
6HR MIN TEMP:  70; 6HR MAX TEMP:  90;

$$



USA.gov is the U.S. government's official web portal to all federal, state and local government web resources and services.